Regional Weather Roundup
Issued by NWS

Home | Current Version | Previous Version | Text Only | Print | Product List | Glossary On
Versions: 1 2 3 4 5 6 7 8 9 10 11 12 13 14 15 16 17 18 19 20 21 22 23 24 25 26 27 28 29 30 31 32 33 34 35 36 37 38 39 40 41 42 43 44 45 46 47 48 49 50
731
ASUS44 KLIX 211410
RWRLA
LOUISIANA WEATHER ROUNDUP
NATIONAL WEATHER SERVICE NEW ORLEANS LA
900 AM CDT TUE OCT 21 2014

NOTE: "FAIR" INDICATES FEW OR NO CLOUDS BELOW 12,000 FEET WITH NO
      SIGNIFICANT WEATHER AND/OR OBSTRUCTIONS TO VISIBILITY.
      SKY/WX - SKY CONDITION AND SIGNIFICANT WEATHER.
      TMP - AIR TEMPERATURE.    DP   - DEWPOINT TEMPERATURE.
      RH  - RELATIVE HUMIDITY.  PRES - PRESSURE.
      HX  - HEAT INDEX.         WCI  - WIND CHILL INDEX.

*  THESE STATIONS ARE NOT NWS OR FAA STATIONS AND ARE NOT UNDER
   NWS QUALITY CONTROL.

LAZ040-048-061>063-065-066-069-211500-
SOUTHEAST LOUISIANA

CITY           SKY/WX    TMP DP  RH WIND       PRES   REMARKS
N.O. AUDUBON     N/A     71  56  58 MISG        N/A
N.O. INTL ARPT MOSUNNY   70  57  63 NE13      30.05R
N.O. LAKEFRONT SUNNY     69  56  62 NE14      30.06R
N.O. DOWNTOWN* FAIR      66  50  55 NE7       30.06R
SLIDELL        SUNNY     61  54  77 N6        30.07R
BATON ROUGE    SUNNY     62  53  72 NE8       30.08R
BOOTHVILLE     SUNNY     74  63  68 NE8       30.04R
BELLE CHASSE   MOSUNNY   68  56  65 NE8       30.05R
BOGALUSA*        N/A     60  53  75 N3        30.10R
NEW ROADS*     FAIR      62  56  80 CALM      30.09R
GONZALES*      FAIR      63  55  76 NE3       30.07R
HAMMOND*       SUNNY     64  52  63 NE5       30.09S
HOUMA*         SUNNY     64  57  77 N9        30.05R
PORT FOURCHON* SUNNY     73  63  68 NE10      30.07R

$$

LAZ041-044-053-054-211500-
SOUTHWEST LOUISIANA

CITY           SKY/WX    TMP DP  RH WIND       PRES   REMARKS
LAKE CHARLES   SUNNY     64  56  75 NE9       30.07R
LAFAYETTE      SUNNY     62  55  77 NE8       30.08R
PATTERSON      NOT AVBL
SALT POINT       N/A     66  59  78 VRB5      30.04R
NEW IBERIA     SUNNY     65  55  70 MISG      30.08R
CHENAULT AIRPK NOT AVBL

$$

LAZ027-028-211500-
CENTRAL LOUISIANA

CITY           SKY/WX    TMP DP  RH WIND       PRES   REMARKS
FORT POLK      SUNNY     64  54  72 NE5       30.09R
ALEXANDRIA INT SUNNY     61  56  83 CALM      30.09R
ALEXANDRIA     SUNNY     59  56  89 CALM      30.11R

$$

LAZ001-002-211500-
NORTHWEST LOUISIANA

CITY           SKY/WX    TMP DP  RH WIND       PRES   REMARKS
SHREVEPORT     MOSUNNY   64  59  83 CALM      30.10R
BARKSDALE AFB  SUNNY     60  57  88 CALM      30.11R
DTN SHREVEPORT SUNNY     62  57  83 CALM      30.11R

$$

LAZ014-016-211500-
NORTHEAST LOUISIANA

CITY           SKY/WX    TMP DP  RH WIND       PRES   REMARKS
MONROE         CLOUDY    63  58  83 CALM      30.12R
TALLULAH       SUNNY     61  56  83 CALM      30.11R

$$




USA.gov is the U.S. government's official web portal to all federal, state and local government web resources and services.